ONEWEB-0699, 61605

Orbit data source: Space-Track

ONEWEB-0699, 61605 is a payload satellite owned by Eut. One Web (UK) in LEO that was launched on Sun, 20 Oct 2024 UTC via an FALCON 9 launch vehicle from the Air Force Western Test Range (AFWTR). Payload-class satellites include a variety of spacecraft equipped with specific instruments for various scientific and technological missions. These include communications satellites like Starlink; space stations such as the ISS; scientific satellites like the Hubble; Earth observation satellites from companies like Planet Labs, Umbra, and HawkEye 360; GPS; miniature CubeSats for education and research; and military/defense satellites.

Loading next visibility...
Identifier
61605, 2024-188M
Orbit
LEO
Last TLE update
12 hours ago
Origin
Manufacturer
One Web
Mission
Operational Commercial Communications
Bus & Motor
ARROW, Unknown motor
Mass
148 kg wet, ~140 kg dry
Launch date (UTC)
2024-10-20 (9 months ago)
Launch vehicle
FALCON 9
Launch site
Air Force Western Test Range (AFWTR)
Object type
Payload
Rocket body
Debris
Shape & HBR
Trap Box + 2 Pan, 5 m
Radar Cross Section
2.032 m², Large (>1 m²)

Expand to show TLE details & history

TLE from 12 hours ago
0 ONEWEB-0699
1 61605U 24188M   25191.51572388  .00000712  00000-0  20029-2 0  9993
2 61605  87.8821 104.3945 0002491  68.4608 291.6785 13.10373174 38568
Epoch: 2025-07-10T12:22Z
TLE epoch observation values (Epoch: 2025-07-10T12:22:38.543Z)
Latitude
0.00002°
Longitude
-9.94699°
Altitude
1,223.904 km
Speed
7.243 km/s
True Right ascension
06h 57m 34s
True Declination
0° 00' 00"
Sunlit
Object was in daylight at epoch
Visualization orbit readout
Latitude
48.37984°
Longitude
167.58275°
Altitude
1,228.511 km
Speed
7.245 km/s
Apparent Right ascension
21h 29m 55s
Apparent Declination
12° 01' 45"
Sunlit
Object is in daylight
Visualization observer readout
Local Sidereal Time
12:18:42
Azimuth
46.435° ENE
Elevation
-24.963°
Doppler factor
1
Orbital elements
Apogee altitude
1,220.728 km
Perigee altitude
1,216.943 km
Semi-major axis
7,596.973 km
Eccentricity
0.00025
Inclination
87.8821°
RAAN
104.3945°
Arg. of periapsis
68.4608°
True anomaly
Unknown
Mean anomaly
291.6785°
Eccentric anomaly
Unknown
Mean motion
3.2778 °/min
Orbital period
109.83 mins
BSTAR
0.0020029
Loading maneuver chart data...
Loading SW <> Apogee altitude chart data...
Loading historical data...
Loading historical data...
Loading historical data...
Loading historical data...
Loading historical data...
Loading historical data...
Loading historical data...

ONEWEB-0699 Visibility forecast

Observer location: undefined°, undefined°

Span
Click to sort rows by Start time (UTC) header in descending order
Start Az.
Max El. time (UTC)
Max El. Az.
Max El.
End time (UTC)
End Az.
12 mins2025-07-11 05:28:32.130Z17.788° NNE2025-07-11 05:34:32.130Z78.123° E30.743°2025-07-11 05:40:32.130Z142.709° SSE
11 mins2025-07-11 07:19:32.130Z338.337° N2025-07-11 07:24:32.130Z281.33° WNW32.688°2025-07-11 07:30:32.130Z216.162° SW
11 mins2025-07-11 17:49:32.130Z139.924° SSE2025-07-11 17:54:32.130Z77.078° E33.312°2025-07-11 18:00:32.130Z16.559° NNE
11 mins2025-07-11 19:39:32.130Z224.096° SW2025-07-11 19:44:32.130Z283.059° WNW30.04°2025-07-11 19:50:32.130Z342.027° N
|